Zurück zum Katalog

COMSTAR 1

AktivKommunikationGEO
NORAD 8838·PAYLOAD·🇺🇸 United States

Gestartet May 13, 1976 von Cape Canaveral Space Force Station

Loading…

TLE

AktuellSource: Space-Track

Epoche: Sep 14, 2026, 07:03 UTC

1 08838U 76042A   26257.29379773  .00000040  00000-0  00000-0 0  9999
2 08838   7.7857 304.0577 0004434 336.4164 198.8247  0.99826123121464

Verfolge COMSTAR 1 in Echtzeit mit AllMySat

Download on the App Store